Date,TemperatureHighF,TemperatureAvgF,TemperatureLowF,DewpointHighF,DewpointAvgF,DewpointLowF,HumidityHigh,HumidityAvg,HumidityLow,PressureMaxIn,PressureMinIn,WindSpeedMaxMPH,WindSpeedAvgMPH,GustSpeedMaxMPH,PrecipitationSumIn
2013-1-1,41,37,28,31,25,9,71,61,46,29.95,29.77,11,2,14,0.00
2013-1-2,32,28,23,18,15,8,65,57,44,30.11,29.94,14,1,14,0.00
2013-1-3,29,25,20,20,15,5,78,64,51,30.16,30.02,9,1,12,0.00
2013-1-4,38,33,25,27,24,18,80,70,58,30.03,29.89,6,1,13,0.00
2013-1-5,44,35,27,28,24,21,81,66,49,30.25,29.92,12,1,14,0.00
2013-1-6,42,34,27,40,32,22,97,90,81,30.20,29.97,8,1,10,0.01
2013-1-7,43,35,23,34,27,17,91,72,55,30.39,29.98,8,0,9,0.00
2013-1-8,46,41,23,40,37,17,93,85,76,30.42,30.32,9,1,11,0.00
2013-1-9,47,41,27,45,38,24,100,89,74,30.38,30.05,9,1,15,0.00
2013-1-10,48,43,35,38,28,25,77,57,44,30.52,30.13,14,1,14,0.00
2013-1-11,46,40,28,46,37,23,100,88,77,30.51,30.12,1,0,2,0.24
2013-1-12,47,45,44,47,45,44,100,100,99,30.14,30.05,5,0,5,0.09
2013-1-13,50,46,43,50,46,43,100,100,100,30.15,30.00,3,0,4,0.01
2013-1-14,56,49,40,56,46,33,100,89,60,30.24,29.95,7,1,11,0.02
2013-1-15,40,38,36,37,34,32,98,86,76,30.30,30.17,4,0,5,0.23
2013-1-16,43,39,36,43,38,32,100,98,80,30.20,29.73,6,0,9,0.62
2013-1-17,43,38,33,38,34,26,100,87,66,30.06,29.87,9,0,9,0.00
2013-1-18,34,26,21,26,11,4,87,53,37,30.49,29.99,9,1,15,0.00
2013-1-19,46,43,22,42,36,13,88,76,67,30.42,29.98,14,5,18,0.03
2013-1-20,50,46,36,43,34,16,89,68,34,29.93,29.65,14,3,15,0.00
2013-1-21,33,30,25,29,21,10,97,71,44,30.09,29.77,2,0,7,0.00
2013-1-22,27,22,19,27,11,2,97,63,44,30.06,29.76,15,2,15,0.00
2013-1-23,19,16,12,3,0,-2,62,50,41,30.19,30.10,8,1,15,0.00
2013-1-24,21,15,7,5,1,-1,75,54,37,30.30,30.11,16,2,17,0.00
2013-1-25,23,21,15,18,9,2,85,60,51,30.35,30.01,10,1,13,0.00
2013-1-26,26,22,16,20,12,5,90,65,46,30.29,29.99,11,1,14,0.01
2013-1-27,32,25,18,12,9,6,72,51,33,30.47,30.29,12,1,12,0.01
2013-1-28,38,31,13,37,27,6,99,87,62,30.46,29.99,5,0,7,0.31
2013-1-29,40,37,31,38,36,31,100,95,87,30.17,29.98,2,0,4,0.02
2013-1-30,52,48,40,52,48,39,100,100,98,30.12,29.48,8,2,9,0.00
2013-1-31,54,44,31,54,33,16,100,67,38,29.69,29.10,22,4,23,0.29
2013-2-1,32,29,25,18,13,7,62,50,41,30.15,29.69,12,2,18,0.00
2013-2-2,31,28,20,23,16,8,87,62,48,30.28,30.05,13,2,13,0.00
2013-2-3,32,27,23,26,21,17,92,78,62,30.05,29.73,5,0,6,0.03
2013-2-4,32,28,23,23,15,11,82,58,45,29.96,29.75,15,2,16,0.00
2013-2-5,32,30,27,32,26,13,97,87,56,29.98,29.88,5,0,5,0.00
2013-2-6,40,34,28,32,25,6,98,71,35,30.32,29.89,9,1,12,0.07
2013-2-7,33,30,24,24,15,2,75,55,32,30.50,30.31,6,0,9,0.01
2013-2-8,38,34,28,38,32,24,100,95,74,30.38,29.41,10,2,13,0.56
2013-2-9,28,24,20,28,21,11,100,89,64,30.21,29.50,5,2,12,0.00
2013-2-10,32,23,14,21,14,8,80,69,51,30.43,30.22,6,0,7,0.10
2013-2-11,45,40,15,45,39,10,100,99,80,30.34,29.63,10,1,10,1.73
2013-2-12,46,40,31,42,32,24,100,74,54,29.92,29.64,13,2,20,0.09
2013-2-13,41,35,25,31,28,21,92,75,57,29.91,29.63,4,0,4,0.00
2013-2-14,43,37,31,35,32,25,98,81,52,30.00,29.67,5,0,7,0.14
2013-2-15,47,41,32,44,39,30,100,94,85,30.03,29.91,7,0,9,0.00
2013-2-16,38,35,31,37,33,30,99,92,81,29.92,29.63,5,0,7,0.04
2013-2-17,31,26,19,30,12,5,98,60,36,29.79,29.49,25,4,25,0.00
2013-2-18,31,25,18,15,10,6,60,53,45,30.19,29.79,17,3,22,0.01
2013-2-19,45,40,22,45,37,14,100,89,53,30.21,29.60,6,1,7,0.52
2013-2-20,42,32,26,42,19,12,100,60,46,29.89,29.61,14,3,18,0.08
2013-2-21,35,30,25,19,16,14,70,58,48,30.16,29.84,17,4,21,0.00
2013-2-22,38,34,27,30,26,19,80,73,63,30.36,30.19,6,0,11,0.00
2013-2-23,41,38,35,39,36,29,100,92,79,30.28,29.75,7,0,9,0.16
2013-2-24,41,37,33,41,37,33,100,100,100,29.88,29.64,8,1,13,0.18
2013-2-25,43,36,31,35,32,26,100,84,65,30.22,29.88,5,0,7,0.00
2013-2-26,42,38,33,38,35,31,98,87,74,30.31,30.17,4,0,4,0.00
2013-2-27,46,42,39,46,42,38,100,100,97,30.00,29.51,11,1,12,0.89
2013-2-28,44,40,34,43,40,34,100,98,96,29.61,29.51,1,0,5,0.00
2013-3-1,46,41,35,40,34,30,100,78,57,29.69,29.52,9,1,11,0.01
2013-3-2,40,38,34,32,29,28,82,71,63,29.71,29.63,9,1,12,0.00
2013-3-3,38,34,31,29,26,24,81,72,59,29.66,29.59,10,1,12,0.00
2013-3-4,42,36,30,27,25,22,81,64,51,29.78,29.63,18,3,18,0.00
2013-3-5,47,38,31,30,27,24,78,66,52,29.94,29.78,7,2,13,0.00
2013-3-6,43,39,30,39,36,26,98,88,76,30.00,29.82,14,3,19,0.08
2013-3-7,42,37,33,36,33,31,98,85,72,29.95,29.80,14,3,18,0.06
2013-3-8,38,34,32,36,33,31,100,97,75,30.06,29.88,2,1,12,0.29
2013-3-9,50,40,32,38,30,24,90,69,39,30.31,30.06,6,0,10,0.52
2013-3-10,42,39,33,37,35,32,97,86,78,30.38,30.31,3,0,6,0.81
2013-3-11,47,41,30,44,40,28,99,94,89,30.32,30.12,3,0,3,0.00
2013-3-12,48,46,42,47,46,41,100,99,97,30.13,29.74,4,0,4,0.11
2013-3-13,51,44,38,48,32,28,100,65,45,29.82,29.74,13,2,13,0.00
2013-3-14,40,34,31,32,18,14,81,53,41,29.88,29.77,15,3,17,0.00
2013-3-15,42,37,29,33,24,12,73,57,44,29.92,29.69,14,2,19,0.00
2013-3-16,40,36,32,30,25,14,89,66,35,29.87,29.72,9,0,9,0.00
2013-3-17,38,34,29,30,17,9,90,53,30,30.28,29.87,12,1,13,0.00
2013-3-18,37,33,26,33,21,10,90,61,44,30.42,30.08,5,0,6,0.03
2013-3-19,41,38,35,41,38,33,100,99,90,30.08,29.55,10,1,11,0.79
2013-3-20,43,37,29,35,26,21,97,64,43,29.83,29.72,19,2,19,0.00
2013-3-21,39,35,30,29,27,25,91,74,61,29.81,29.58,8,1,8,0.00
2013-3-22,33,30,28,29,20,16,93,65,57,29.73,29.64,11,1,11,0.00
2013-3-23,46,40,33,26,24,20,72,53,39,29.85,29.69,19,2,21,0.00
2013-3-24,47,40,32,34,26,21,77,58,44,29.88,29.69,10,1,12,0.00
2013-3-25,42,38,33,36,33,27,98,82,68,29.73,29.41,9,1,13,0.17
2013-3-26,50,40,35,35,33,29,98,80,47,29.70,29.48,8,1,10,0.01
2013-3-27,54,42,29,32,28,24,89,62,34,29.87,29.77,5,1,15,0.00
2013-3-28,50,44,37,39,36,30,83,72,54,29.97,29.86,11,1,11,0.00
2013-3-29,58,47,39,40,36,29,82,67,34,30.07,29.99,11,1,11,0.00
2013-3-30,57,48,39,41,34,22,81,61,28,30.10,30.03,9,2,9,0.00
2013-3-31,49,43,28,46,40,24,99,88,80,30.12,29.60,4,0,5,0.19
2013-4-1,51,47,40,48,45,38,100,94,82,29.74,29.59,11,2,13,0.13
2013-4-2,43,38,28,27,18,13,77,45,29,30.01,29.82,11,2,18,0.01
2013-4-3,45,39,32,21,17,13,56,41,30,30.22,30.01,16,3,19,0.00
2013-4-4,47,39,30,36,26,16,86,62,44,30.35,30.10,9,2,14,0.00
2013-4-5,55,44,40,47,39,25,100,84,44,30.11,29.65,8,1,16,0.07
2013-4-6,49,41,34,31,21,8,77,48,21,30.32,29.89,11,2,15,0.00
2013-4-7,51,41,27,45,36,23,97,84,75,30.31,30.03,4,1,8,0.00
2013-4-8,54,47,42,49,45,42,100,92,78,30.07,29.97,4,0,5,0.00
2013-4-9,79,59,47,51,47,42,100,73,28,29.91,29.87,10,3,21,0.00
2013-4-10,66,51,45,53,47,42,98,85,60,30.01,29.79,3,0,13,0.06
2013-4-11,55,48,44,53,46,42,100,92,83,30.07,29.77,5,0,5,0.10
2013-4-12,44,42,40,42,40,37,100,96,79,30.07,29.68,9,1,11,0.43
2013-4-13,56,46,39,45,41,38,100,86,56,29.93,29.67,9,1,12,0.46
2013-4-14,56,50,42,47,38,29,99,67,37,30.19,29.94,16,2,16,0.09
2013-4-15,52,46,38,44,38,30,93,75,58,30.38,30.19,3,0,3,0.09
2013-4-16,56,48,38,50,46,38,100,92,78,30.39,30.14,6,1,8,0.00
2013-4-17,67,54,41,51,45,37,100,74,36,30.29,30.10,6,1,7,0.01
2013-4-18,54,48,36,49,44,35,98,84,71,30.38,30.12,4,0,4,0.00
2013-4-19,57,52,49,56,52,49,100,99,95,30.12,29.89,7,1,7,0.00
2013-4-20,57,51,46,55,46,34,100,84,42,30.08,29.66,5,2,13,0.10
2013-4-21,49,40,37,36,26,22,61,57,50,30.50,30.20,5,2,12,0.01
2013-4-23,45,45,44,43,43,42,93,93,92,30.08,29.99,4,1,10,0.00
2013-4-24,59,48,44,49,46,42,100,91,67,30.01,29.90,9,2,12,0.00
2013-4-25,64,52,42,51,41,31,100,69,31,30.26,29.88,10,1,11,0.01
2013-4-26,59,50,36,50,43,32,97,78,63,30.37,30.25,3,0,3,0.01
2013-4-27,58,49,38,51,46,37,100,91,75,30.40,30.31,5,0,6,0.00
2013-4-28,58,51,38,50,47,38,100,87,72,30.34,30.23,4,0,5,0.00
2013-4-29,57,52,48,52,49,46,98,88,79,30.26,30.21,2,0,3,0.00
2013-4-30,60,52,38,49,44,33,98,75,60,30.33,30.22,5,0,5,0.00
2013-5-1,58,50,37,52,46,33,98,88,78,30.46,30.32,2,0,4,0.00
2013-5-2,63,53,36,53,48,34,100,83,70,30.45,30.33,8,1,8,0.00
2013-5-3,59,52,47,49,46,42,93,80,57,30.45,30.34,11,0,14,0.00
2013-5-4,57,50,37,50,44,35,98,83,71,30.34,30.25,5,0,5,0.00
2013-5-5,56,50,42,48,45,39,97,84,73,30.28,30.22,4,0,7,0.00
2013-5-6,55,49,42,51,46,40,97,91,81,30.27,30.16,2,0,4,0.00
2013-5-7,62,54,45,57,52,44,100,94,82,30.17,30.11,4,0,4,0.00
2013-5-8,59,55,53,59,55,53,100,99,97,30.12,30.01,3,0,3,0.12
2013-5-9,60,54,51,60,54,51,100,100,100,30.02,29.85,4,0,5,0.37
2013-5-10,67,58,46,62,56,46,100,92,77,29.97,29.90,6,0,7,0.00
2013-5-11,59,57,54,59,56,53,100,100,98,29.92,29.69,8,1,9,0.17
2013-5-12,63,58,52,58,50,34,100,79,43,29.86,29.63,9,2,13,0.04
2013-5-13,59,53,46,45,35,29,66,51,34,30.03,29.86,12,2,12,0.00
2013-5-14,61,52,44,46,39,30,82,64,37,30.07,30.00,9,1,12,0.00
2013-5-15,60,53,35,55,50,33,100,90,80,30.07,29.69,4,0,5,0.00
2013-5-16,66,58,46,58,54,46,100,87,69,29.78,29.67,9,1,9,0.00
2013-5-17,71,62,53,55,48,44,94,63,41,30.20,29.79,10,1,12,0.00
2013-5-18,66,57,47,58,53,45,99,89,76,30.31,30.20,5,0,6,0.00
2013-5-19,60,55,47,57,54,45,100,96,87,30.35,30.18,2,0,2,0.13
2013-5-20,63,58,55,62,58,55,100,99,91,30.18,29.95,6,1,7,0.03
2013-5-21,65,59,55,62,59,55,100,97,89,29.97,29.85,10,1,10,0.01
2013-5-22,66,59,54,63,59,54,100,98,87,29.95,29.87,4,0,6,0.00
2013-5-23,68,62,58,64,61,58,100,97,85,29.94,29.81,7,1,9,0.15
2013-5-24,63,59,50,63,58,50,100,99,91,29.81,29.67,9,1,13,0.21
2013-5-25,50,48,45,50,46,43,100,96,90,29.84,29.75,21,2,21,0.22
2013-5-26,61,54,46,45,43,40,85,68,52,30.15,29.82,5,3,21,0.00
2013-5-27,63,54,42,52,46,37,91,76,57,30.18,30.11,3,1,12,0.00
2013-5-28,52,52,52,50,49,49,91,90,90,30.17,30.15,0,0,3,0.00
2013-5-29,64,58,55,62,57,55,100,97,87,30.14,30.00,5,0,7,0.22
2013-5-30,68,62,56,63,60,56,100,91,81,30.10,30.04,10,1,10,0.00
2013-5-31,71,63,56,65,60,56,100,90,79,30.10,29.99,6,1,8,0.00
2013-6-1,71,64,56,65,61,56,100,90,79,30.02,29.93,7,0,8,0.00
2013-6-2,71,64,59,65,61,58,100,93,79,29.94,29.82,5,1,9,0.00
2013-6-3,63,60,57,63,60,57,100,100,97,29.85,29.78,8,0,8,0.41
2013-6-4,64,58,53,64,54,46,100,86,62,29.94,29.80,7,1,13,0.00
2013-6-5,70,61,52,60,55,49,95,81,56,30.19,30.06,0,0,4,0.00
2013-6-6,67,60,49,63,58,48,100,92,85,30.16,30.03,0,0,1,0.00
2013-6-7,60,60,60,59,59,59,97,97,97,30.03,30.02,0,0,0,0.00
2013-6-8,71,63,56,66,62,56,100,95,79,30.00,29.48,4,1,13,0.15
2013-6-9,62,60,58,61,60,57,99,98,97,30.04,30.00,0,0,1,0.00
2013-6-10,67,61,56,66,61,56,100,98,92,30.16,29.88,0,0,3,1.05
2013-6-11,73,66,60,69,65,60,100,97,86,29.88,29.57,7,1,9,0.12
2013-6-12,75,68,63,64,58,54,100,73,54,29.81,29.61,15,2,19,0.00
2013-6-13,63,59,53,61,56,49,100,92,74,29.80,29.46,6,0,6,0.55
2013-6-14,70,60,54,59,56,54,100,88,62,29.80,29.46,11,1,11,0.62
2013-6-15,63,62,60,60,59,58,93,91,89,29.87,29.79,7,1,8,0.00
2013-6-16,71,64,54,66,62,53,100,94,82,29.95,29.75,1,0,6,0.00
2013-6-17,75,66,59,69,64,58,100,92,80,29.90,29.80,1,0,8,0.00
2013-6-18,72,66,59,68,64,58,100,95,88,29.89,29.82,1,0,2,0.00
2013-6-19,75,65,58,67,61,56,100,89,55,30.14,29.83,1,0,7,0.01
2013-6-20,74,65,53,66,60,52,100,87,57,30.26,30.14,7,0,8,0.00
2013-6-21,74,66,60,67,63,59,100,89,75,30.29,30.23,5,0,6,0.00
2013-6-22,75,67,60,69,64,59,100,92,77,30.25,30.14,4,0,5,0.00
2013-6-23,78,69,64,71,67,64,100,93,75,30.17,30.06,7,0,7,0.00
2013-6-24,78,71,65,73,69,64,100,94,76,30.06,29.91,9,0,9,0.00
2013-6-25,79,71,66,73,68,64,98,90,79,29.95,29.76,5,0,7,0.00
2013-6-26,82,70,66,76,68,65,100,92,72,29.81,29.73,9,0,9,0.16
2013-6-27,74,70,66,72,68,66,100,97,89,29.81,29.64,3,0,4,0.09
2013-6-28,76,70,68,73,70,68,100,99,91,29.64,29.50,6,0,7,0.03
2013-6-29,77,70,67,73,69,67,100,98,88,29.71,29.48,3,0,6,0.44
2013-6-30,74,70,67,71,69,67,100,98,90,29.93,29.70,4,0,5,0.15
2013-7-1,75,70,68,73,70,68,100,99,91,30.08,29.93,3,0,4,0.02
2013-7-2,76,71,69,74,70,68,100,99,93,30.18,30.07,5,0,5,0.03
2013-7-3,76,71,67,74,70,67,100,99,94,30.24,30.17,4,0,5,0.00
2013-7-4,79,72,68,75,71,68,100,97,84,30.23,30.15,6,0,6,0.00
2013-7-5,80,72,67,75,71,67,100,95,83,30.19,30.08,6,0,9,0.00
2013-7-6,81,73,68,75,71,68,100,94,82,30.10,29.99,6,0,9,0.00
2013-7-7,82,74,68,76,72,67,100,93,81,30.02,29.91,7,0,7,0.00
2013-7-8,80,73,68,74,71,68,100,93,79,30.01,29.92,6,0,7,0.00
2013-7-9,80,72,68,75,71,68,100,97,82,30.06,29.99,3,0,4,0.00
2013-7-10,79,74,71,75,72,71,100,97,87,30.01,29.80,4,0,4,0.00
2013-7-11,74,71,67,74,71,66,100,100,99,29.88,29.79,8,0,8,0.03
2013-7-12,76,72,66,72,70,66,100,94,83,30.09,29.87,5,0,6,0.01
2013-8-8,81,74,70,74,71,68,98,91,77,30.10,30.02,1,0,6,0.00
2013-8-9,76,73,71,76,73,70,100,99,98,30.04,29.79,1,0,11,0.07
2013-8-10,81,74,68,74,69,64,100,83,56,30.01,29.80,3,0,10,0.00
2013-8-11,79,70,62,66,60,53,88,71,55,30.08,30.00,0,0,5,0.00
2013-8-12,74,70,65,74,69,64,100,96,88,30.03,29.91,0,0,3,0.25
2013-8-13,72,69,65,72,68,64,100,100,95,29.92,29.66,0,0,4,0.31
2013-8-14,75,68,60,68,60,55,100,77,53,29.98,29.68,3,1,14,0.01
2013-8-15,78,67,59,65,56,47,90,69,41,30.10,29.98,6,0,8,0.64
2013-8-19,77,68,59,71,65,58,100,92,70,30.09,29.99,1,0,7,0.02
2013-8-20,84,72,64,72,67,63,100,85,50,30.10,30.00,2,0,11,0.00
2013-8-21,82,72,62,74,69,61,100,92,75,30.14,30.04,1,0,4,0.00
2013-8-22,77,72,69,75,71,68,100,97,90,30.04,29.84,1,0,6,0.05
2013-8-23,82,72,65,71,67,62,100,87,52,30.07,29.81,2,0,10,0.00
2013-8-24,76,66,55,64,59,51,96,79,56,30.33,30.07,0,0,6,0.00
2013-8-25,78,67,52,70,63,50,100,88,74,30.36,30.20,5,0,6,1.80
2013-8-26,76,70,67,70,67,64,98,91,77,30.21,29.90,8,0,9,0.39
2013-8-27,78,70,66,74,69,65,100,97,86,29.90,29.78,7,0,7,0.75
2013-8-28,78,71,66,75,70,66,100,96,87,29.89,29.83,2,0,4,0.00
2013-8-29,75,69,65,70,67,63,100,94,81,30.02,29.88,5,0,6,0.01
2013-8-30,76,68,62,72,66,60,98,92,85,30.00,29.85,6,0,7,0.00
2013-8-31,78,72,69,75,71,68,100,96,87,29.86,29.81,5,0,6,0.00
2013-9-1,77,73,69,75,72,69,100,97,89,29.86,29.81,4,0,6,0.01
2013-9-2,75,72,71,75,72,71,100,100,98,29.83,29.70,2,0,3,0.21
2013-9-3,75,70,63,75,70,63,100,100,99,29.82,29.68,6,0,7,1.19
2013-9-4,77,68,58,70,63,58,100,87,60,29.93,29.82,9,0,10,0.00
2013-9-5,76,68,61,68,60,51,99,78,51,30.10,29.88,11,0,11,0.00
2013-9-6,70,61,52,56,51,45,91,70,49,30.22,30.10,6,0,6,0.00
2013-9-7,74,61,51,60,54,46,95,78,47,30.11,29.94,8,0,9,0.00
2013-9-8,79,70,62,67,61,47,95,74,53,30.05,29.77,3,0,15,0.00
2013-9-9,70,62,52,58,52,45,85,71,54,30.23,30.06,0,0,5,0.00
2013-9-10,75,69,64,72,66,58,99,91,80,30.17,30.04,1,0,7,0.06
2013-9-11,77,71,67,73,70,67,100,96,87,30.09,29.99,1,0,7,0.00
2013-9-12,78,72,68,74,70,68,100,96,86,29.99,29.68,5,0,8,0.72
2013-9-13,76,70,63,72,68,58,100,92,74,29.76,29.58,7,0,9,0.04
2013-9-14,70,61,54,59,55,48,92,80,62,30.07,29.75,8,0,10,0.00
2013-9-15,69,58,49,58,52,46,99,81,53,30.17,30.07,6,0,7,0.00
2013-9-26,64,60,51,59,54,46,92,82,70,30.09,29.93,0,0,2,0.00
2013-9-27,66,59,49,57,54,46,98,85,70,30.24,30.08,0,0,6,0.00
2013-9-28,70,59,49,63,55,46,100,89,75,30.29,30.23,0,0,4,0.00
2013-9-29,65,56,46,58,53,44,99,88,76,30.23,30.07,0,0,5,0.00
2013-9-30,68,61,56,60,58,53,98,89,67,30.06,29.95,0,0,4,0.00
2013-10-1,76,64,53,64,59,52,100,85,52,29.95,29.86,2,0,8,0.00
2013-10-2,79,68,55,67,62,53,100,83,61,29.97,29.86,7,0,10,0.00
2013-10-3,76,65,59,64,58,46,96,78,36,30.08,29.97,5,0,6,0.00
2013-10-4,74,64,55,70,62,53,100,93,86,30.06,29.97,4,0,4,0.00
2013-10-5,69,64,62,65,63,60,99,94,84,30.08,30.00,2,0,3,0.00
2013-10-6,66,63,62,66,63,61,100,99,97,30.14,30.05,1,0,1,0.02
2013-10-7,72,67,65,71,67,65,100,100,96,30.05,29.89,4,0,4,0.01
2013-10-8,66,61,57,61,51,46,97,70,52,30.30,29.90,1,0,10,0.00
2013-10-9,64,58,54,54,51,48,82,76,67,30.38,30.28,0,0,7,0.00
2013-10-10,65,61,56,61,58,51,94,90,83,30.28,30.07,7,0,8,0.00
2013-10-11,67,63,60,62,60,52,97,90,76,30.08,30.01,6,0,7,0.00
2013-10-12,69,61,57,60,56,50,90,82,62,30.29,30.06,5,0,9,0.00
2013-10-13,63,57,54,54,52,48,91,83,69,30.37,30.27,4,0,5,0.00
2013-10-14,57,50,46,50,45,41,89,83,79,30.37,30.25,0,0,0,0.00
2013-10-15,65,62,60,60,58,56,99,87,74,30.21,30.17,1,0,1,0.00
2013-10-16,66,60,57,61,57,53,96,89,83,30.12,29.91,0,0,5,0.00
2013-10-17,68,63,60,65,62,59,100,96,87,29.90,29.72,1,0,6,0.00
2013-10-18,67,61,49,64,55,44,100,82,57,29.93,29.64,10,1,12,0.02
2013-10-19,66,55,42,58,49,39,100,83,58,29.99,29.74,4,0,4,0.01
2013-10-20,62,56,43,61,47,38,97,75,44,30.04,29.70,9,1,11,0.00
2013-10-21,65,49,40,54,44,37,99,84,55,30.13,30.04,4,0,6,0.00
2013-10-22,66,60,51,59,55,47,90,83,72,29.99,29.71,2,0,8,0.00
2013-10-23,54,49,44,48,41,38,93,75,57,29.79,29.58,0,0,6,0.07
2013-10-24,54,47,43,43,37,32,92,69,45,29.93,29.68,3,1,17,0.01
2013-10-25,52,46,36,38,34,28,81,64,46,30.19,29.94,8,0,14,0.00
2013-10-26,56,47,33,47,39,26,92,73,53,30.19,29.89,13,2,16,0.00
2013-10-27,57,50,36,41,37,30,79,63,45,30.08,29.83,11,1,12,0.00
2013-10-28,60,45,32,46,37,28,96,74,49,30.30,30.08,9,1,9,0.00
2013-10-29,54,45,34,40,35,29,81,68,49,30.40,30.30,5,0,7,0.00
2013-10-30,60,48,34,53,43,29,98,85,71,30.34,30.18,4,0,5,0.00
2013-10-31,68,57,44,65,56,41,100,95,85,30.23,29.83,9,0,9,0.00
2013-11-1,67,63,60,64,62,59,98,95,89,29.83,29.55,10,2,10,0.01
2013-11-2,63,58,54,60,56,50,99,93,85,29.73,29.59,4,0,5,0.00
2013-11-3,54,49,38,50,40,24,87,74,54,30.38,29.72,7,0,7,0.00
2013-11-4,46,38,32,32,28,24,81,66,49,30.66,30.38,10,0,10,0.00
2013-11-5,53,45,36,42,37,30,82,76,62,30.67,30.50,1,0,1,0.00
2013-11-6,62,52,37,59,48,33,98,88,77,30.50,30.07,5,0,5,0.00
2013-11-7,62,56,44,62,55,37,100,95,75,30.07,29.68,10,1,12,0.49
2013-11-8,50,44,41,37,32,28,77,63,48,30.15,29.86,14,1,14,0.00
2013-11-9,52,46,41,44,33,28,73,62,52,30.19,30.02,9,1,10,0.00
2013-11-10,60,52,48,46,40,34,73,64,37,30.02,29.74,16,2,18,0.00
2013-11-11,54,49,42,46,36,30,74,61,52,30.14,29.94,7,2,14,0.00
2013-11-12,54,39,32,43,30,19,93,72,57,30.21,29.89,3,1,14,0.11
2013-11-13,38,32,28,23,20,16,73,60,43,30.29,30.20,2,1,12,0.00
2013-11-14,48,42,31,31,25,20,67,50,33,30.24,30.10,11,1,12,0.00
2013-11-15,55,49,42,48,39,28,83,68,52,30.23,30.16,8,1,9,0.00
2013-11-19,53,44,35,37,28,24,64,54,45,30.29,29.70,4,2,18,0.00
2013-11-20,43,34,25,24,21,17,78,60,36,30.59,30.30,1,0,10,0.00
2013-11-21,49,39,25,44,33,19,92,79,66,30.60,30.38,0,0,4,0.00
2013-11-22,54,51,48,54,49,44,99,92,81,30.37,29.84,2,0,10,0.08
2013-11-23,51,44,34,51,32,17,99,65,38,29.92,29.82,4,2,17,0.00
2013-11-24,34,27,25,17,6,0,52,41,29,30.27,29.85,6,4,24,0.00
2013-11-25,35,28,22,25,15,9,72,59,51,30.43,30.27,3,1,14,0.00
2013-11-26,52,42,35,52,32,23,98,68,50,30.32,29.90,6,0,9,0.01
2013-11-27,60,49,38,60,49,34,100,99,83,29.91,29.18,15,2,17,0.00
2013-11-28,40,33,28,35,21,15,84,62,45,30.45,29.59,16,2,17,0.00
2013-11-29,37,32,29,24,20,16,77,63,52,30.71,30.45,6,0,6,0.00
2013-11-30,41,32,24,34,22,14,74,67,58,30.75,30.39,4,0,4,0.00
2013-12-1,52,47,41,51,44,34,98,90,74,30.39,29.99,3,0,5,0.01
2013-12-2,44,40,34,43,38,31,100,95,88,29.98,29.86,3,0,4,0.00
2013-12-3,48,41,37,43,38,34,99,90,73,29.97,29.84,6,0,7,0.00
2013-12-4,48,38,30,42,34,27,98,89,80,30.15,29.97,4,0,5,0.00
2013-12-5,56,51,38,55,51,37,100,99,95,30.15,29.93,4,0,4,0.00
2013-12-6,56,48,39,56,48,39,100,100,100,30.08,29.88,7,1,7,0.02
2013-12-7,41,37,32,39,32,21,100,82,57,30.46,30.02,8,1,15,0.00
2013-12-8,35,32,28,30,24,22,82,71,63,30.58,30.39,5,0,6,0.00
2013-12-9,51,41,34,51,41,30,100,98,83,30.39,29.87,8,0,8,0.00
2013-12-10,37,33,31,37,33,22,100,98,67,30.06,29.79,12,1,16,0.00
2013-12-11,32,8,0,22,6,0,67,17,67,30.28,30.06,0,0,0,0.00
2013-12-12,0,0,0,0,0,0,0,0,100,30.29,30.11,0,0,0,0.00
2013-12-13,0,0,0,0,0,0,0,0,100,30.33,30.07,0,0,0,0.00
2013-12-14,0,0,0,0,0,0,0,0,100,30.53,29.90,0,0,0,0.00
2013-12-15,0,0,0,0,0,0,0,0,100,29.91,29.36,0,0,0,0.00
2013-12-16,0,0,0,0,0,0,0,0,100,30.21,29.77,0,0,0,0.00
2013-12-17,0,0,0,0,0,0,0,0,100,30.23,29.92,0,0,0,0.00
2013-12-20,0,0,0,0,0,0,0,0,100,30.11,29.97,0,0,0,0.00
2013-12-21,0,0,0,0,0,0,0,0,100,30.01,29.91,0,0,0,0.00
2013-12-22,0,0,0,0,0,0,0,0,100,29.97,29.83,0,0,0,0.00
2013-12-23,0,0,0,0,0,0,0,0,100,30.07,29.88,0,0,0,0.00
2013-12-24,0,0,0,0,0,0,0,0,100,30.23,30.02,0,0,0,0.00
2013-12-25,0,0,0,0,0,0,0,0,100,30.52,30.24,0,0,0,0.00
2013-12-26,0,0,0,0,0,0,0,0,100,30.43,30.09,0,0,0,0.00
2013-12-27,0,0,0,0,0,0,0,0,100,30.31,30.22,0,0,0,0.00
2013-12-28,0,0,0,0,0,0,0,0,100,30.26,30.05,0,0,0,0.00
2013-12-29,0,0,0,0,0,0,0,0,100,30.06,29.31,0,0,0,0.00
2013-12-30,0,0,0,0,0,0,0,0,100,30.15,29.58,0,0,0,0.00
2013-12-31,29,12,0,18,7,0,65,24,60,30.22,30.05,5,1,6,0.00
2014-1-1,29,29,29,17,17,17,60,60,60,30.40,30.22,2,2,2,0.00
2014-1-2,29,29,29,17,17,17,60,60,60,30.27,29.63,2,2,2,0.00